International Skating Union - Official Site

ESSENT ISU WORLD ALLROUND CHAMPIONSHIPS 2011
February 12-13, 2011

Draw | Lap Times | Index | Classification

Referee: Dan  IMMERFALL  (USA)
Starter: Jan  ZWIER  (NED)
StartTime: EndTime: Air Temp: Ice Temp: Humidity:
15:49 17:36 16℃ -8.9℃ 24%
Result 10000m Men
Rankings as of Feb 13 2011 5:38PM
Rank: No.: Name: Nation: Time: Behind: Points:
1 13 Håvard  BØKKO NOR NOR 12:53.89400m - 34.39 - (34.3)
800m - 1:04.86 - (30.4)
1200m - 1:36.14 - (31.2)
1600m - 2:06.97 - (30.8)
2000m - 2:38.10 - (31.1)
2400m - 3:09.03 - (30.9)
2800m - 3:40.31 - (31.2)
3200m - 4:11.14 - (30.8)
3600m - 4:42.16 - (31.0)
4000m - 5:13.51 - (31.3)
4400m - 5:44.97 - (31.4)
4800m - 6:16.17 - (31.2)
5200m - 6:47.43 - (31.2)
5600m - 7:18.70 - (31.2)
6000m - 7:49.82 - (31.1)
6400m - 8:20.88 - (31.0)
6800m - 8:52.05 - (31.1)
7200m - 9:23.03 - (30.9)
7600m - 9:53.41 - (30.3)
8000m - 10:22.84 - (29.4)
8400m - 10:52.47 - (29.6)
8800m - 11:22.33 - (29.8)
9200m - 11:52.44 - (30.1)
9600m - 12:22.72 - (30.2)
10000m - 12:53.89 - (31.1)
38.694
2 20 Ivan  SKOBREV RUS RUS 12:58.36400m - 36.11 - (36.1)
800m - 1:07.31 - (31.2)
1200m - 1:38.54 - (31.2)
1600m - 2:09.84 - (31.3)
2000m - 2:41.16 - (31.3)
2400m - 3:12.18 - (31.0)
2800m - 3:43.68 - (31.5)
3200m - 4:15.10 - (31.4)
3600m - 4:46.54 - (31.4)
4000m - 5:17.96 - (31.4)
4400m - 5:49.77 - (31.8)
4800m - 6:21.34 - (31.5)
5200m - 6:52.75 - (31.4)
5600m - 7:23.93 - (31.1)
6000m - 7:55.01 - (31.0)
6400m - 8:25.88 - (30.8)
6800m - 8:56.86 - (30.9)
7200m - 9:27.55 - (30.6)
7600m - 9:58.21 - (30.6)
8000m - 10:28.78 - (30.5)
8400m - 10:59.13 - (30.3)
8800m - 11:29.22 - (30.0)
9200m - 11:59.22 - (30.0)
9600m - 12:29.00 - (29.7)
10000m - 12:58.36 - (29.3)
4.47 38.918
3 9 Jan  BLOKHUIJSEN NED NED 13:00.04400m - 34.56 - (34.5)
800m - 1:05.22 - (30.6)
1200m - 1:35.86 - (30.6)
1600m - 2:06.97 - (31.1)
2000m - 2:37.79 - (30.8)
2400m - 3:08.93 - (31.1)
2800m - 3:39.87 - (30.9)
3200m - 4:10.89 - (31.0)
3600m - 4:41.54 - (30.6)
4000m - 5:12.70 - (31.1)
4400m - 5:43.99 - (31.2)
4800m - 6:15.30 - (31.3)
5200m - 6:46.52 - (31.2)
5600m - 7:17.72 - (31.2)
6000m - 7:48.87 - (31.1)
6400m - 8:19.99 - (31.1)
6800m - 8:50.91 - (30.9)
7200m - 9:21.83 - (30.9)
7600m - 9:52.88 - (31.0)
8000m - 10:23.89 - (31.0)
8400m - 10:54.86 - (30.9)
8800m - 11:25.82 - (30.9)
9200m - 11:56.85 - (31.0)
9600m - 12:28.00 - (31.1)
10000m - 13:00.04 - (32.0)
6.15 39.002
4 16 Shane  DOBBIN NZL NZL 13:06.17400m - 35.58 - (35.5)
800m - 1:06.52 - (30.9)
1200m - 1:38.35 - (31.8)
1600m - 2:10.14 - (31.7)
2000m - 2:41.69 - (31.5)
2400m - 3:13.05 - (31.3)
2800m - 3:44.70 - (31.6)
3200m - 4:16.17 - (31.4)
3600m - 4:47.53 - (31.3)
4000m - 5:19.01 - (31.4)
4400m - 5:50.29 - (31.2)
4800m - 6:21.50 - (31.2)
5200m - 6:52.50 - (31.0)
5600m - 7:23.51 - (31.0)
6000m - 7:54.62 - (31.1)
6400m - 8:25.84 - (31.2)
6800m - 8:57.08 - (31.2)
7200m - 9:28.40 - (31.3)
7600m - 9:59.81 - (31.4)
8000m - 10:31.10 - (31.2)
8400m - 11:02.24 - (31.1)
8800m - 11:33.42 - (31.1)
9200m - 12:04.41 - (30.9)
9600m - 12:35.58 - (31.1)
10000m - 13:06.17 - (30.5)
12.28 39.308
5 12 Koen  VERWEIJ NED NED 13:08.97400m - 35.27 - (35.2)
800m - 1:06.12 - (30.8)
1200m - 1:36.53 - (30.4)
1600m - 2:06.87 - (30.3)
2000m - 2:37.40 - (30.5)
2400m - 3:07.89 - (30.4)
2800m - 3:38.39 - (30.5)
3200m - 4:08.85 - (30.4)
3600m - 4:39.55 - (30.7)
4000m - 5:10.39 - (30.8)
4400m - 5:41.56 - (31.1)
4800m - 6:13.01 - (31.4)
5200m - 6:44.89 - (31.8)
5600m - 7:16.86 - (31.9)
6000m - 7:48.65 - (31.7)
6400m - 8:20.61 - (31.9)
6800m - 8:52.26 - (31.6)
7200m - 9:24.10 - (31.8)
7600m - 9:55.92 - (31.8)
8000m - 10:27.98 - (32.0)
8400m - 11:00.18 - (32.2)
8800m - 11:32.36 - (32.1)
9200m - 12:04.54 - (32.1)
9600m - 12:36.87 - (32.3)
10000m - 13:08.97 - (32.1)
15.08 39.448
6 24 Jonathan  KUCK USA USA 13:11.24400m - 36.14 - (36.1)
800m - 1:07.30 - (31.1)
1200m - 1:39.11 - (31.8)
1600m - 2:10.97 - (31.8)
2000m - 2:42.41 - (31.4)
2400m - 3:13.97 - (31.5)
2800m - 3:46.18 - (32.2)
3200m - 4:18.32 - (32.1)
3600m - 4:49.93 - (31.6)
4000m - 5:21.96 - (32.0)
4400m - 5:54.27 - (32.3)
4800m - 6:26.65 - (32.3)
5200m - 6:58.79 - (32.1)
5600m - 7:30.97 - (32.1)
6000m - 8:03.02 - (32.0)
6400m - 8:34.89 - (31.8)
6800m - 9:06.39 - (31.5)
7200m - 9:37.75 - (31.3)
7600m - 10:08.81 - (31.0)
8000m - 10:39.84 - (31.0)
8400m - 11:10.88 - (31.0)
8800m - 11:41.65 - (30.7)
9200m - 12:11.74 - (30.0)
9600m - 12:41.48 - (29.7)
10000m - 13:11.24 - (29.7)
17.35 39.562
7 10 Wouter  OLDE HEUVEL NED NED 13:17.75400m - 36.04 - (36.0)
800m - 1:06.91 - (30.8)
1200m - 1:38.22 - (31.3)
1600m - 2:09.93 - (31.7)
2000m - 2:41.67 - (31.7)
2400m - 3:13.43 - (31.7)
2800m - 3:45.15 - (31.7)
3200m - 4:16.82 - (31.6)
3600m - 4:48.41 - (31.5)
4000m - 5:20.35 - (31.9)
4400m - 5:51.94 - (31.5)
4800m - 6:23.61 - (31.6)
5200m - 6:55.41 - (31.8)
5600m - 7:27.30 - (31.8)
6000m - 7:59.35 - (32.0)
6400m - 8:31.16 - (31.8)
6800m - 9:03.15 - (31.9)
7200m - 9:35.27 - (32.1)
7600m - 10:07.31 - (32.0)
8000m - 10:39.14 - (31.8)
8400m - 11:10.85 - (31.7)
8800m - 11:42.66 - (31.8)
9200m - 12:14.62 - (31.9)
9600m - 12:46.36 - (31.7)
10000m - 13:17.75 - (31.3)
23.86 39.887
8 22 Shani  DAVIS USA USA 13:19.59400m - 36.94 - (36.9)
800m - 1:09.35 - (69.3)
1200m - 1:41.65 - (32.3)
1600m - 2:13.73 - (32.0)
2000m - 2:45.22 - (31.4)
2400m - 3:16.64 - (31.4)
2800m - 3:47.76 - (31.1)
3200m - 4:19.41 - (31.6)
3600m - 4:50.70 - (31.2)
4000m - 5:22.27 - (31.5)
4400m - 5:53.98 - (31.7)
4800m - 6:25.91 - (31.9)
5200m - 6:57.73 - (31.8)
5600m - 7:29.69 - (31.9)
6000m - 8:01.71 - (32.0)
6400m - 8:33.56 - (31.8)
6800m - 9:05.35 - (31.7)
7200m - 9:37.10 - (31.7)
7600m - 10:08.78 - (31.6)
8000m - 10:40.64 - (31.8)
8400m - 11:12.35 - (31.7)
8800m - 11:44.08 - (31.7)
9200m - 12:16.04 - (31.9)
9600m - 12:48.00 - (31.9)
10000m - 13:19.59 - (31.5)
25.70 39.979
9 23 Brian  HANSEN USA USA 13:24.11400m - 36.93 - (36.9)
800m - 1:09.37 - (69.3)
1200m - 1:41.61 - (32.2)
1600m - 2:13.05 - (31.4)
2000m - 2:44.94 - (31.8)
2400m - 3:16.56 - (31.6)
2800m - 3:48.29 - (31.7)
3200m - 4:19.66 - (31.3)
3600m - 4:51.19 - (31.5)
4000m - 5:22.82 - (31.6)
4400m - 5:54.76 - (31.9)
4800m - 6:26.76 - (32.0)
5200m - 6:58.80 - (32.0)
5600m - 7:30.96 - (32.1)
6000m - 8:03.07 - (32.1)
6400m - 8:35.28 - (32.2)
6800m - 9:07.43 - (32.1)
7200m - 9:39.74 - (32.3)
7600m - 10:11.89 - (32.1)
8000m - 10:43.97 - (32.0)
8400m - 11:16.19 - (32.2)
8800m - 11:48.32 - (32.1)
9200m - 12:21.01 - (32.6)
9600m - 12:52.49 - (31.4)
10000m - 13:24.11 - (31.6)
30.22 40.205
10 11 Renz  ROTTEVEEL NED NED 13:33.94400m - 36.11 - (36.1)
800m - 1:07.78 - (31.6)
1200m - 1:39.59 - (31.8)
1600m - 2:11.51 - (31.9)
2000m - 2:43.45 - (31.9)
2400m - 3:15.44 - (31.9)
2800m - 3:47.32 - (31.8)
3200m - 4:19.29 - (31.9)
3600m - 4:51.43 - (32.1)
4000m - 5:23.52 - (32.0)
4400m - 5:55.56 - (32.0)
4800m - 6:27.48 - (31.9)
5200m - 6:59.68 - (32.2)
5600m - 7:32.05 - (32.3)
6000m - 8:04.34 - (32.2)
6400m - 8:36.87 - (32.5)
6800m - 9:09.59 - (32.7)
7200m - 9:42.29 - (32.7)
7600m - 10:15.16 - (32.8)
8000m - 10:48.22 - (33.0)
8400m - 11:21.27 - (33.0)
8800m - 11:54.46 - (33.1)
9200m - 12:27.93 - (33.4)
9600m - 13:01.10 - (33.1)
10000m - 13:33.94 - (32.8)
40.05 40.697
11 4 Alexis  CONTIN FRA FRA 13:36.91400m - 35.26 - (35.2)
800m - 1:07.48 - (32.2)
1200m - 1:39.89 - (32.4)
1600m - 2:11.94 - (32.0)
2000m - 2:43.91 - (31.9)
2400m - 3:15.72 - (31.8)
2800m - 3:47.70 - (31.9)
3200m - 4:19.65 - (31.9)
3600m - 4:51.40 - (31.7)
4000m - 5:23.39 - (31.9)
4400m - 5:55.36 - (31.9)
4800m - 6:27.60 - (32.2)
5200m - 7:00.04 - (32.4)
5600m - 7:32.04 - (32.0)
6000m - 8:04.53 - (32.4)
6400m - 8:37.22 - (32.6)
6800m - 9:10.39 - (33.1)
7200m - 9:43.47 - (33.0)
7600m - 10:16.70 - (33.2)
8000m - 10:50.15 - (33.4)
8400m - 11:23.71 - (33.5)
8800m - 11:57.29 - (33.5)
9200m - 12:30.45 - (33.1)
9600m - 13:03.65 - (33.2)
10000m - 13:36.91 - (33.2)
43.02 40.845
12 2 Lucas  MAKOWSKY CAN CAN 13:53.71400m - 36.69 - (36.6)
800m - 1:08.77 - (32.0)
1200m - 1:40.88 - (32.1)
1600m - 2:13.03 - (32.1)
2000m - 2:45.22 - (32.1)
2400m - 3:17.10 - (31.8)
2800m - 3:49.35 - (32.2)
3200m - 4:21.66 - (32.3)
3600m - 4:54.26 - (32.6)
4000m - 5:27.18 - (32.9)
4400m - 6:00.26 - (33.0)
4800m - 6:33.57 - (33.3)
5200m - 7:07.06 - (33.4)
5600m - 7:40.67 - (33.6)
6000m - 8:14.13 - (33.4)
6400m - 8:47.59 - (33.4)
6800m - 9:21.15 - (33.5)
7200m - 9:55.14 - (33.9)
7600m - 10:29.16 - (34.0)
8000m - 11:03.26 - (34.1)
8400m - 11:37.34 - (34.0)
8800m - 12:11.57 - (34.2)
9200m - 12:45.82 - (34.2)
9600m - 13:19.94 - (34.1)
10000m - 13:53.71 - (33.7)
59.82 41.685